Martinsville, VA

9:19 PM EDT on July 20, 2017 (GMT -0400)
Blue Ridge

Weather History for KMTV - August, 2013

Change the Weather History Date:

Tuesday, August 13, 2013

  Actual Average (KINT) Record (KINT)
Temperature  
Mean Temperature 76 °F -  
Max Temperature 85 °F 83 °F 96 °F (2002)
Min Temperature 68 °F 66 °F 50 °F (1979)
Cooling Degree Days 12    
Growing Degree Days 26 (Base 50)    
Moisture  
Dew Point 70 °F    
Average Humidity 88    
Maximum Humidity 98    
Minimum Humidity 63    
Precipitation  
Precipitation 0.27 in - - ()
Sea Level Pressure  
Sea Level Pressure 29.92 in    
Wind  
Wind Speed 1 mph (West)    
Max Wind Speed 10 mph    
Max Gust Speed 26 mph    
Visibility 8 miles    
Events Fog , Rain    
Averages and records for this station are not official NWS values.
T = Trace of Precipitation, MM = Missing Value Source: NWS Daily Summary

Daily Weather History Graph

Daily Weather History Graph

Search for Another Location

Airport or City:

Trip Planner

Search our weather history database for the weather conditions in past years. The results will help you decide how hot, cold, wet, or windy it might be!

Date:

Astronomy

Aug. 13, 2013 Rise Set
Actual Time 6:36 AM EDT 8:13 PM EDT
Civil Twilight 6:08 AM EDT 8:40 PM EDT
Nautical Twilight 5:35 AM EDT 9:13 PM EDT
Astronomical Twilight 5:00 AM EDT 9:48 PM EDT
Moon 1:16 PM EDT (8/13) No Moon Set
Length of Visible Light 14h 32m
Length of Day
13h 37m
Waxing Crescent, 41% of the Moon is Illuminated
Aug 13
Waxing Crescent
Aug 14
First Quarter
Aug 20
Full
Aug 28
Last Quarter
Sep 5
New

Hourly Weather History & Observations

Time (EDT) Temp. Heat Index Dew Point Humidity Pressure Visibility Wind Dir Wind Speed Gust Speed Precip Events Conditions
12:15 AM 70.3 °F - 69.1 °F 96% 30.02 in 7.0 mi Calm Calm - N/A   Scattered Clouds
12:55 AM 69.8 °F - 68.5 °F 96% 30.01 in 7.0 mi Calm Calm - N/A   Scattered Clouds
1:15 AM 69.8 °F - 68.4 °F 95% 30.00 in 10.0 mi Calm Calm - N/A   Overcast
1:35 AM - - - N/A% - - North - - N/A   Unknown
1:55 AM - - - N/A% - - North - - N/A   Unknown
2:15 AM - - - N/A% - - North - - N/A   Unknown
2:35 AM 68.9 °F - 68.0 °F 97% 29.97 in 0.5 mi Calm Calm - N/A   Unknown
2:55 AM 68.9 °F - 68.0 °F 97% 29.97 in 0.5 mi Calm Calm - N/A Fog Fog
3:15 AM 68.7 °F - 68.0 °F 98% 29.97 in 1.8 mi Calm Calm - N/A   Overcast
3:35 AM 68.9 °F - 68.0 °F 97% 29.97 in 1.8 mi Calm Calm - N/A   Overcast
3:55 AM 68.9 °F - 68.0 °F 97% 29.96 in 5.0 mi Calm Calm - N/A   Mostly Cloudy
4:15 AM 68.5 °F - 67.6 °F 97% 29.96 in 7.0 mi Calm Calm - N/A   Scattered Clouds
4:35 AM 68.2 °F - 67.1 °F 96% 29.95 in 10.0 mi Calm Calm - N/A   Clear
4:55 AM 68.0 °F - 66.9 °F 96% 29.93 in 10.0 mi Calm Calm - N/A   Clear
5:15 AM 68.0 °F - 67.1 °F 97% 29.92 in 10.0 mi Calm Calm - N/A   Clear
5:35 AM 68.0 °F - 67.1 °F 97% 29.93 in 7.0 mi Calm Calm - N/A   Scattered Clouds
5:55 AM 68.0 °F - 67.1 °F 97% 29.92 in 10.0 mi Calm Calm - N/A   Clear
6:15 AM 68.0 °F - 67.1 °F 97% 29.92 in 10.0 mi Calm Calm - N/A   Clear
6:35 AM 68.0 °F - 66.9 °F 96% 29.93 in 10.0 mi Calm Calm - N/A   Clear
6:55 AM 68.0 °F - 67.1 °F 97% 29.93 in 4.0 mi Calm Calm - N/A   Clear
7:15 AM 68.2 °F - 67.3 °F 97% 29.93 in 10.0 mi Calm Calm - N/A   Clear
7:35 AM 68.5 °F - 67.5 °F 96% 29.92 in 10.0 mi Calm Calm - N/A   Mostly Cloudy
7:55 AM 69.4 °F - 68.0 °F 95% 29.93 in 10.0 mi Calm Calm - N/A   Mostly Cloudy
8:15 AM 69.8 °F - 68.2 °F 95% 29.93 in 10.0 mi Calm Calm - N/A   Scattered Clouds
8:35 AM 70.3 °F - 68.7 °F 95% 29.93 in 10.0 mi Calm Calm - N/A Rain Light Rain
8:55 AM 70.7 °F - 68.7 °F 93% 29.95 in 10.0 mi Calm Calm - N/A Rain Light Rain
9:15 AM 70.7 °F - 69.1 °F 95% 29.95 in 10.0 mi Calm Calm - 0.01 in Rain Light Rain
9:35 AM 70.9 °F - 69.3 °F 95% 29.95 in 10.0 mi Calm Calm - 0.03 in Rain Light Rain
9:55 AM 71.2 °F - 69.8 °F 95% 29.95 in 7.0 mi SW 3.5 mph - 0.04 in Rain Light Rain
10:15 AM 71.6 °F - 69.8 °F 94% 29.93 in 7.0 mi Calm Calm - 0.02 in Rain Light Rain
10:35 AM 73.0 °F - 70.9 °F 93% 29.93 in 10.0 mi Calm Calm - 0.02 in   Scattered Clouds
10:55 AM 73.4 °F - 70.7 °F 91% 29.93 in 10.0 mi SSW 3.5 mph - 0.02 in   Scattered Clouds
11:15 AM 73.6 °F - 70.7 °F 91% 29.93 in 10.0 mi Calm Calm - N/A   Scattered Clouds
11:35 AM 75.0 °F - 71.4 °F 89% 29.93 in 10.0 mi Calm Calm - N/A   Scattered Clouds
11:55 AM 77.0 °F - 71.8 °F 84% 29.93 in 10.0 mi Calm Calm - N/A   Clear
12:15 PM 80.1 °F 84.2 °F 72.9 °F 79% 29.92 in 10.0 mi WSW 5.8 mph - N/A   Clear
12:35 PM 81.9 °F 86.8 °F 72.5 °F 73% 29.92 in 10.0 mi SSW 6.9 mph - N/A   Clear
12:55 PM 82.4 °F 87.2 °F 71.6 °F 70% 29.91 in 10.0 mi WSW 6.9 mph - N/A   Clear
1:15 PM 83.7 °F 88.6 °F 71.1 °F 66% 29.90 in 10.0 mi West 5.8 mph - N/A   Scattered Clouds
1:35 PM 82.8 °F 87.9 °F 72.1 °F 70% 29.90 in 10.0 mi SW 4.6 mph - N/A   Mostly Cloudy
1:55 PM 84.2 °F 89.3 °F 71.1 °F 65% 29.90 in 10.0 mi WSW 4.6 mph - N/A   Scattered Clouds
2:15 PM 85.1 °F 90.4 °F 71.4 °F 63% 29.89 in 10.0 mi WSW 4.6 mph - N/A   Clear
2:35 PM 83.1 °F 87.8 °F 71.2 °F 67% 29.90 in 10.0 mi WNW 10.4 mph 26.5 mph N/A   Mostly Cloudy
2:55 PM 75.0 °F - 72.3 °F 91% 29.90 in 10.0 mi WNW 3.5 mph - 0.18 in   Overcast
3:15 PM 73.2 °F - 69.3 °F 87% 29.89 in 7.0 mi WSW 5.8 mph - 0.03 in Rain Rain
3:35 PM 74.7 °F - 70.5 °F 87% 29.87 in 10.0 mi Calm Calm - 0.03 in   Mostly Cloudy
3:55 PM 79.3 °F - 71.8 °F 78% 29.87 in 10.0 mi NW 6.9 mph - 0.03 in   Scattered Clouds
4:15 PM 81.1 °F 86.2 °F 73.2 °F 77% 29.87 in 10.0 mi NW 4.6 mph - N/A   Clear
4:35 PM 81.7 °F 86.7 °F 72.5 °F 74% 29.85 in 10.0 mi NW 4.6 mph - N/A   Clear
4:55 PM 84.7 °F 91.0 °F 72.9 °F 67% 29.86 in 10.0 mi Calm Calm - N/A   Clear
5:15 PM 83.8 °F 88.9 °F 71.4 °F 66% 29.86 in 10.0 mi Calm Calm - N/A   Clear
5:35 PM 84.0 °F 89.3 °F 71.8 °F 66% 29.86 in 10.0 mi Calm Calm - N/A   Clear
5:55 PM 83.3 °F 88.7 °F 72.1 °F 69% 29.86 in 10.0 mi Calm Calm - N/A   Mostly Cloudy
6:15 PM 80.2 °F 83.7 °F 71.1 °F 73% 29.86 in 10.0 mi NNW 4.6 mph - N/A   Overcast
6:35 PM 80.1 °F 83.4 °F 70.9 °F 73% 29.87 in 10.0 mi NW 4.6 mph - N/A   Overcast
6:55 PM 77.7 °F - 70.9 °F 79% 29.86 in 10.0 mi NW 4.6 mph - N/A   Overcast
8:15 PM 73.0 °F - 71.6 °F 95% 29.88 in 5.0 mi Calm Calm - N/A   Mostly Cloudy
8:35 PM 73.0 °F - 71.2 °F 94% 29.88 in 10.0 mi Calm Calm - N/A   Mostly Cloudy
8:55 PM 72.1 °F - 70.7 °F 95% 29.89 in 5.0 mi Calm Calm - N/A   Scattered Clouds
9:15 PM 71.8 °F - 70.7 °F 96% 29.90 in 5.0 mi Calm Calm - N/A   Scattered Clouds
9:35 PM 71.6 °F - 70.5 °F 96% 29.90 in 5.0 mi Calm Calm - N/A   Scattered Clouds
9:55 PM 70.7 °F - 69.8 °F 97% 29.90 in 4.0 mi Calm Calm - N/A   Clear
10:15 PM 71.2 °F - 70.0 °F 96% 29.91 in 5.0 mi Calm Calm - N/A   Mostly Cloudy
10:35 PM 71.2 °F - 70.2 °F 96% 29.90 in 5.0 mi Calm Calm - N/A   Overcast
10:55 PM 70.7 °F - 69.3 °F 95% 29.91 in 7.0 mi Calm Calm - N/A   Scattered Clouds
11:15 PM 70.7 °F - 68.7 °F 93% 29.91 in 10.0 mi Calm Calm - N/A   Mostly Cloudy
11:35 PM 70.5 °F - 68.7 °F 94% 29.91 in 10.0 mi Calm Calm - N/A   Mostly Cloudy
11:55 PM 70.5 °F - 67.5 °F 90% 29.92 in 10.0 mi NW 4.6 mph - N/A   Overcast